sat.trackr.live / text

‹ back to catalog

STARLINK-34686

NORAD 65087 · 2025-167K

PAYLOAD ACTIVE UNKNOWN

§ Identity

Operator
Country
US
Launch date
2025-08-04
Launch site
AFETR
Launch vehicle
Mass (kg)
RCS (m²)

Purposes: comms

External: N2YO · Heavens-Above · Gunter

§ Orbital elements

Epoch: 2026-09-20T13:22:22.219104Z

Period
94.01 min
Inclination
53.1589°
Eccentricity
0.0001492
Mean motion
15.31708793 rev/d
Perigee alt
469.7 km
Apogee alt
471.7 km
Semi-major
6,848.9 km
B*
1.3923e-4
RAAN
201.6100°
Arg perigee
92.9438°
Mean anomaly
267.1734°
Rev number
6,331

§ Raw data

STARLINK-346861 65087U 25167K   26263.55720161  .00003959  00000+0  13923-3 0  99992 65087  53.1589 201.6100 0001492  92.9438 267.1734 15.31708793 63317

JSON: /api/v1/satellites/65087 · /tle

For live sub-satellite position, see the globe view (requires WebGL).

§ Visibility from observer

Set your observer location to see the next 7 days of passes ≥ 10°. The values pass through the URL so the page stays shareable.

No JS? Fill the form by hand. The geolocation button needs JavaScript.